Time,TemperatureF,DewpointF,PressureIn,WindDirection,WindDirectionDegrees,WindSpeedMPH,WindSpeedGustMPH,Humidity,HourlyPrecipIn,Conditions,Clouds,dailyrainin,SoftwareType,DateUTC
2013-07-07 00:01:00,69.0,62.5,30.14,SSW,202,5.0,6.0,80,0.00,,,0.00,Rainwise IP-100,2013-07-07 04:01:00,
2013-07-07 00:06:00,69.0,61.5,30.14,SE,135,6.0,8.0,78,0.00,,,0.00,Rainwise IP-100,2013-07-07 04:06:00,
2013-07-07 00:11:00,69.0,62.5,30.14,South,180,3.0,6.0,80,0.00,,,0.00,Rainwise IP-100,2013-07-07 04:11:00,
2013-07-07 00:16:00,67.0,62.5,30.14,WNW,292,0.0,5.0,85,0.00,,,0.00,Rainwise IP-100,2013-07-07 04:16:00,
2013-07-07 00:21:00,67.0,63.0,30.15,South,180,3.0,5.0,87,0.00,,,0.00,Rainwise IP-100,2013-07-07 04:21:00,
2013-07-07 00:26:00,67.0,63.5,30.15,SSW,202,0.0,4.0,88,0.00,,,0.00,Rainwise IP-100,2013-07-07 04:26:00,
2013-07-07 00:31:00,67.0,63.0,30.14,SSW,202,2.0,3.0,87,0.00,,,0.00,Rainwise IP-100,2013-07-07 04:31:00,
2013-07-07 00:36:00,66.0,62.0,30.14,SSW,202,0.0,2.0,87,0.00,,,0.00,Rainwise IP-100,2013-07-07 04:36:00,
2013-07-07 00:41:00,66.0,62.0,30.15,NW,315,5.0,5.0,88,0.00,,,0.00,Rainwise IP-100,2013-07-07 04:41:00,
2013-07-07 00:46:00,65.0,62.5,30.15,WSW,247,2.0,6.0,92,0.00,,,0.00,Rainwise IP-100,2013-07-07 04:46:00,
2013-07-07 00:51:00,65.0,63.0,30.15,WSW,247,3.0,4.0,93,0.00,,,0.00,Rainwise IP-100,2013-07-07 04:51:00,
2013-07-07 00:56:00,64.0,62.0,30.15,WSW,247,6.0,6.0,93,0.00,,,0.00,Rainwise IP-100,2013-07-07 04:56:00,
2013-07-07 01:01:00,65.0,63.0,30.15,SW,225,4.0,6.0,94,0.00,,,0.00,Rainwise IP-100,2013-07-07 05:01:00,
2013-07-07 01:06:00,65.0,63.0,30.15,SSW,202,7.0,7.0,93,0.00,,,0.00,Rainwise IP-100,2013-07-07 05:06:00,
2013-07-07 01:11:00,65.0,62.0,30.15,SW,225,4.0,7.0,91,0.00,,,0.00,Rainwise IP-100,2013-07-07 05:11:00,
2013-07-07 01:16:00,65.0,62.5,30.15,SSE,157,5.0,7.0,92,0.00,,,0.00,Rainwise IP-100,2013-07-07 05:16:00,
2013-07-07 01:21:00,66.0,62.5,30.14,WNW,292,4.0,7.0,89,0.00,,,0.00,Rainwise IP-100,2013-07-07 05:21:00,
2013-07-07 01:26:00,67.0,61.5,30.14,South,180,4.0,9.0,82,0.00,,,0.00,Rainwise IP-100,2013-07-07 05:26:00,
2013-07-07 01:31:00,66.0,62.0,30.14,WNW,292,0.0,6.0,88,0.00,,,0.00,Rainwise IP-100,2013-07-07 05:31:00,
2013-07-07 01:36:00,67.0,62.5,30.14,SE,135,5.0,8.0,85,0.00,,,0.00,Rainwise IP-100,2013-07-07 05:36:00,
2013-07-07 01:41:00,66.0,62.0,30.14,WNW,292,1.0,6.0,87,0.00,,,0.00,Rainwise IP-100,2013-07-07 05:41:00,
2013-07-07 01:46:00,65.0,62.5,30.14,NNE,22,0.0,6.0,92,0.00,,,0.00,Rainwise IP-100,2013-07-07 05:46:00,
2013-07-07 01:51:00,64.0,63.0,30.15,SSE,157,0.0,5.0,96,0.00,,,0.00,Rainwise IP-100,2013-07-07 05:51:00,
2013-07-07 01:56:00,64.0,63.0,30.15,SSE,157,0.0,1.0,96,0.00,,,0.00,Rainwise IP-100,2013-07-07 05:56:00,
2013-07-07 02:00:00,64.0,61.5,30.14,SE,135,0.0,6.0,91,0.00,,,0.00,Rainwise IP-100,2013-07-07 06:00:00,
2013-07-07 02:05:00,66.0,62.0,30.14,SSE,157,5.0,6.0,87,0.00,,,0.00,Rainwise IP-100,2013-07-07 06:05:00,
2013-07-07 02:10:00,67.0,62.0,30.13,SSW,202,3.0,9.0,83,0.00,,,0.00,Rainwise IP-100,2013-07-07 06:10:00,
2013-07-07 02:15:00,68.0,62.5,30.13,SE,135,4.0,7.0,82,0.00,,,0.00,Rainwise IP-100,2013-07-07 06:15:00,
2013-07-07 02:20:00,68.0,63.0,30.12,SW,225,5.0,6.0,84,0.00,,,0.00,Rainwise IP-100,2013-07-07 06:20:00,
2013-07-07 02:25:00,67.0,62.0,30.12,SSW,202,4.0,5.0,84,0.00,,,0.00,Rainwise IP-100,2013-07-07 06:25:00,
2013-07-07 02:30:00,68.0,62.5,30.12,SSW,202,3.0,7.0,83,0.00,,,0.00,Rainwise IP-100,2013-07-07 06:30:00,
2013-07-07 02:35:00,67.0,62.0,30.12,SW,225,5.0,5.0,83,0.00,,,0.00,Rainwise IP-100,2013-07-07 06:35:00,
2013-07-07 02:40:00,68.0,62.5,30.12,SW,225,6.0,6.0,83,0.00,,,0.00,Rainwise IP-100,2013-07-07 06:40:00,
2013-07-07 02:45:00,67.0,62.5,30.12,SW,225,2.0,6.0,85,0.00,,,0.00,Rainwise IP-100,2013-07-07 06:45:00,
2013-07-07 02:50:00,67.0,63.0,30.12,SW,225,2.0,5.0,87,0.00,,,0.00,Rainwise IP-100,2013-07-07 06:50:00,
2013-07-07 02:55:00,66.0,62.0,30.12,SSW,202,0.0,5.0,87,0.00,,,0.00,Rainwise IP-100,2013-07-07 06:55:00,
2013-07-07 03:00:00,66.0,62.0,30.13,WNW,292,0.0,4.0,88,0.00,,,0.00,Rainwise IP-100,2013-07-07 07:00:00,
2013-07-07 03:05:00,66.0,62.5,30.13,West,270,3.0,5.0,89,0.00,,,0.00,Rainwise IP-100,2013-07-07 07:05:00,
2013-07-07 03:10:00,65.0,62.0,30.13,SSW,202,3.0,5.0,90,0.00,,,0.00,Rainwise IP-100,2013-07-07 07:10:00,
2013-07-07 03:15:00,65.0,61.5,30.13,West,270,4.0,4.0,89,0.00,,,0.00,Rainwise IP-100,2013-07-07 07:15:00,
2013-07-07 03:20:00,66.0,62.0,30.13,South,180,0.0,7.0,88,0.00,,,0.00,Rainwise IP-100,2013-07-07 07:20:00,
2013-07-07 03:25:00,66.0,62.0,30.13,WSW,247,3.0,4.0,88,0.00,,,0.00,Rainwise IP-100,2013-07-07 07:25:00,
2013-07-07 03:30:00,65.0,61.5,30.13,WSW,247,5.0,6.0,89,0.00,,,0.00,Rainwise IP-100,2013-07-07 07:30:00,
2013-07-07 03:35:00,66.0,62.5,30.13,NW,315,0.0,6.0,89,0.00,,,0.00,Rainwise IP-100,2013-07-07 07:35:00,
2013-07-07 03:40:00,65.0,61.5,30.13,South,180,2.0,5.0,88,0.00,,,0.00,Rainwise IP-100,2013-07-07 07:40:00,
2013-07-07 03:45:00,65.0,62.0,30.13,WSW,247,2.0,4.0,91,0.00,,,0.00,Rainwise IP-100,2013-07-07 07:45:00,
2013-07-07 03:50:00,65.0,61.5,30.13,SW,225,3.0,5.0,89,0.00,,,0.00,Rainwise IP-100,2013-07-07 07:50:00,
2013-07-07 03:55:00,65.0,60.5,30.13,SE,135,0.0,5.0,86,0.00,,,0.00,Rainwise IP-100,2013-07-07 07:55:00,
2013-07-07 04:00:00,65.0,61.5,30.13,West,270,0.0,6.0,88,0.00,,,0.00,Rainwise IP-100,2013-07-07 08:00:00,
2013-07-07 04:05:00,65.0,61.0,30.13,SW,225,4.0,4.0,87,0.00,,,0.00,Rainwise IP-100,2013-07-07 08:05:00,
2013-07-07 04:10:00,65.0,61.5,30.13,SW,225,3.0,6.0,88,0.00,,,0.00,Rainwise IP-100,2013-07-07 08:10:00,
2013-07-07 04:15:00,65.0,61.5,30.13,SW,225,3.0,5.0,89,0.00,,,0.00,Rainwise IP-100,2013-07-07 08:15:00,
2013-07-07 04:20:00,65.0,62.0,30.13,SW,225,1.0,5.0,90,0.00,,,0.00,Rainwise IP-100,2013-07-07 08:20:00,
2013-07-07 04:25:00,66.0,59.5,30.13,SW,225,1.0,7.0,79,0.00,,,0.00,Rainwise IP-100,2013-07-07 08:25:00,
2013-07-07 04:30:00,67.0,60.0,30.12,SE,135,2.0,4.0,77,0.00,,,0.00,Rainwise IP-100,2013-07-07 08:30:00,
2013-07-07 04:35:00,66.0,59.5,30.12,SSW,202,3.0,3.0,80,0.00,,,0.00,Rainwise IP-100,2013-07-07 08:35:00,
2013-07-07 04:40:00,68.0,59.0,30.12,SSE,157,6.0,8.0,72,0.00,,,0.00,Rainwise IP-100,2013-07-07 08:40:00,
2013-07-07 04:45:00,68.0,57.5,30.11,SE,135,6.0,7.0,69,0.00,,,0.00,Rainwise IP-100,2013-07-07 08:45:00,
2013-07-07 04:50:00,68.0,57.5,30.11,SE,135,5.0,7.0,70,0.00,,,0.00,Rainwise IP-100,2013-07-07 08:50:00,
2013-07-07 04:55:00,68.0,58.0,30.11,SE,135,2.0,7.0,71,0.00,,,0.00,Rainwise IP-100,2013-07-07 08:55:00,
2013-07-07 05:00:00,68.0,56.5,30.11,SE,135,5.0,5.0,67,0.00,,,0.00,Rainwise IP-100,2013-07-07 09:00:00,
2013-07-07 05:05:00,68.0,57.5,30.11,South,180,5.0,6.0,70,0.00,,,0.00,Rainwise IP-100,2013-07-07 09:05:00,
2013-07-07 05:10:00,68.0,59.0,30.11,SSE,157,0.0,6.0,73,0.00,,,0.00,Rainwise IP-100,2013-07-07 09:10:00,
2013-07-07 05:15:00,67.0,59.5,30.11,SE,135,0.0,6.0,76,0.00,,,0.00,Rainwise IP-100,2013-07-07 09:15:00,
2013-07-07 05:20:00,66.0,59.0,30.12,SE,135,5.0,6.0,78,0.00,,,0.00,Rainwise IP-100,2013-07-07 09:20:00,
2013-07-07 05:25:00,66.0,59.0,30.12,SE,135,7.0,8.0,78,0.00,,,0.00,Rainwise IP-100,2013-07-07 09:25:00,
2013-07-07 05:30:00,67.0,58.0,30.12,SSE,157,7.0,10.0,73,0.00,,,0.00,Rainwise IP-100,2013-07-07 09:30:00,
2013-07-07 05:35:00,67.0,57.5,30.11,SSE,157,6.0,9.0,72,0.00,,,0.00,Rainwise IP-100,2013-07-07 09:35:00,
2013-07-07 05:40:00,68.0,58.0,30.11,SSE,157,7.0,9.0,71,0.00,,,0.00,Rainwise IP-100,2013-07-07 09:40:00,
2013-07-07 05:45:00,68.0,57.5,30.11,South,180,7.0,9.0,70,0.00,,,0.00,Rainwise IP-100,2013-07-07 09:45:00,
2013-07-07 05:50:00,68.0,57.0,30.11,South,180,5.0,8.0,68,0.00,,,0.00,Rainwise IP-100,2013-07-07 09:50:00,
2013-07-07 05:55:00,68.0,57.5,30.11,SSE,157,6.0,7.0,69,0.00,,,0.00,Rainwise IP-100,2013-07-07 09:55:00,
2013-07-07 06:00:00,68.0,57.5,30.11,South,180,5.0,7.0,70,0.00,,,0.00,Rainwise IP-100,2013-07-07 10:00:00,
2013-07-07 06:05:00,68.0,58.0,30.11,SE,135,3.0,7.0,71,0.00,,,0.00,Rainwise IP-100,2013-07-07 10:05:00,
2013-07-07 06:10:00,68.0,60.5,30.11,SW,225,4.0,6.0,77,0.00,,,0.00,Rainwise IP-100,2013-07-07 10:10:00,
2013-07-07 06:15:00,66.0,59.5,30.11,South,180,3.0,6.0,80,0.00,,,0.00,Rainwise IP-100,2013-07-07 10:15:00,
2013-07-07 06:20:00,66.0,60.0,30.11,SSW,202,4.0,5.0,82,0.00,,,0.00,Rainwise IP-100,2013-07-07 10:20:00,
2013-07-07 06:25:00,66.0,60.0,30.13,South,180,3.0,5.0,82,0.00,,,0.00,Rainwise IP-100,2013-07-07 10:25:00,
2013-07-07 06:30:00,67.0,60.0,30.13,South,180,6.0,7.0,78,0.00,,,0.00,Rainwise IP-100,2013-07-07 10:30:00,
2013-07-07 06:35:00,67.0,60.0,30.12,WNW,292,5.0,7.0,78,0.00,,,0.00,Rainwise IP-100,2013-07-07 10:35:00,
2013-07-07 06:40:00,66.0,61.0,30.12,WNW,292,2.0,5.0,84,0.00,,,0.00,Rainwise IP-100,2013-07-07 10:40:00,
2013-07-07 06:45:00,66.0,61.5,30.13,WSW,247,1.0,4.0,86,0.00,,,0.00,Rainwise IP-100,2013-07-07 10:45:00,
2013-07-07 06:50:00,66.0,62.0,30.13,WSW,247,4.0,5.0,88,0.00,,,0.00,Rainwise IP-100,2013-07-07 10:50:00,
2013-07-07 06:55:00,66.0,62.0,30.13,SW,225,5.0,6.0,87,0.00,,,0.00,Rainwise IP-100,2013-07-07 10:55:00,
2013-07-07 07:00:00,66.0,61.0,30.13,SW,225,4.0,7.0,85,0.00,,,0.00,Rainwise IP-100,2013-07-07 11:00:00,
2013-07-07 07:05:00,66.0,61.5,30.13,SW,225,2.0,5.0,86,0.00,,,0.00,Rainwise IP-100,2013-07-07 11:05:00,
2013-07-07 07:10:00,67.0,62.0,30.13,SW,225,2.0,5.0,84,0.00,,,0.00,Rainwise IP-100,2013-07-07 11:10:00,
2013-07-07 07:15:00,67.0,64.0,30.13,SW,225,0.0,4.0,89,0.00,,,0.00,Rainwise IP-100,2013-07-07 11:15:00,
2013-07-07 07:20:00,66.0,62.0,30.13,NW,315,5.0,5.0,88,0.00,,,0.00,Rainwise IP-100,2013-07-07 11:20:00,
2013-07-07 07:25:00,66.0,62.0,30.13,NNW,337,0.0,6.0,87,0.00,,,0.00,Rainwise IP-100,2013-07-07 11:25:00,
2013-07-07 07:30:00,67.0,64.0,30.13,NNW,337,1.0,4.0,89,0.00,,,0.00,Rainwise IP-100,2013-07-07 11:30:00,
2013-07-07 07:35:00,67.0,64.0,30.13,SW,225,2.0,3.0,89,0.00,,,0.00,Rainwise IP-100,2013-07-07 11:35:00,
2013-07-07 07:40:00,67.0,65.0,30.13,SW,225,1.0,5.0,92,0.00,,,0.00,Rainwise IP-100,2013-07-07 11:40:00,
2013-07-07 07:45:00,68.0,65.5,30.13,SW,225,4.0,4.0,91,0.00,,,0.00,Rainwise IP-100,2013-07-07 11:45:00,
2013-07-07 07:50:00,68.0,65.0,30.13,NW,315,3.0,6.0,90,0.00,,,0.00,Rainwise IP-100,2013-07-07 11:50:00,
2013-07-07 07:55:00,68.0,65.0,30.13,NNW,337,0.0,4.0,90,0.00,,,0.00,Rainwise IP-100,2013-07-07 11:55:00,
2013-07-07 08:00:00,68.0,64.5,30.13,NNW,337,0.0,0.0,89,0.00,,,0.00,Rainwise IP-100,2013-07-07 12:00:00,
2013-07-07 08:05:00,68.0,65.0,30.13,West,270,0.0,1.0,90,0.00,,,0.00,Rainwise IP-100,2013-07-07 12:05:00,
2013-07-07 08:10:00,69.0,65.5,30.13,North,360,1.0,0.0,89,0.00,,,0.00,Rainwise IP-100,2013-07-07 12:10:00,
2013-07-07 08:15:00,68.0,64.5,30.13,NE,45,2.0,3.0,88,0.00,,,0.00,Rainwise IP-100,2013-07-07 12:15:00,
2013-07-07 08:20:00,68.0,64.5,30.13,NE,45,0.0,2.0,88,0.00,,,0.00,Rainwise IP-100,2013-07-07 12:20:00,
2013-07-07 08:25:00,68.0,64.5,30.13,NE,45,0.0,0.0,89,0.00,,,0.00,Rainwise IP-100,2013-07-07 12:25:00,
2013-07-07 08:30:00,69.0,65.5,30.13,NE,45,0.0,2.0,89,0.00,,,0.00,Rainwise IP-100,2013-07-07 12:30:00,
2013-07-07 08:35:00,68.0,65.5,30.13,SSW,202,4.0,4.0,91,0.00,,,0.00,Rainwise IP-100,2013-07-07 12:35:00,
2013-07-07 08:40:00,69.0,66.0,30.13,South,180,2.0,6.0,90,0.00,,,0.00,Rainwise IP-100,2013-07-07 12:40:00,
2013-07-07 08:45:00,70.0,64.0,30.13,South,180,6.0,6.0,81,0.00,,,0.00,Rainwise IP-100,2013-07-07 12:45:00,
2013-07-07 08:50:00,71.0,64.5,30.12,SSW,202,6.0,7.0,80,0.00,,,0.00,Rainwise IP-100,2013-07-07 12:50:00,
2013-07-07 08:55:00,71.0,64.5,30.12,SSW,202,3.0,7.0,80,0.00,,,0.00,Rainwise IP-100,2013-07-07 12:55:00,
2013-07-07 09:00:00,71.0,64.5,30.12,SSW,202,3.0,7.0,80,0.00,,,0.00,Rainwise IP-100,2013-07-07 13:00:00,
2013-07-07 09:05:00,71.0,64.5,30.12,SW,225,2.0,7.0,80,0.00,,,0.00,Rainwise IP-100,2013-07-07 13:05:00,
2013-07-07 09:10:00,72.0,64.0,30.11,South,180,5.0,6.0,76,0.00,,,0.00,Rainwise IP-100,2013-07-07 13:10:00,
2013-07-07 09:15:00,72.0,65.0,30.11,SSW,202,4.0,7.0,79,0.00,,,0.00,Rainwise IP-100,2013-07-07 13:15:00,
2013-07-07 09:20:00,72.0,64.5,30.11,South,180,5.0,7.0,77,0.00,,,0.00,Rainwise IP-100,2013-07-07 13:20:00,
2013-07-07 09:25:00,71.0,63.5,30.11,SSW,202,2.0,9.0,78,0.00,,,0.00,Rainwise IP-100,2013-07-07 13:25:00,
2013-07-07 09:30:00,72.0,65.0,30.11,SW,225,0.0,6.0,79,0.00,,,0.00,Rainwise IP-100,2013-07-07 13:30:00,
2013-07-07 09:35:00,72.0,66.7,30.11,SW,225,0.0,0.0,83,0.00,,,0.00,Rainwise IP-100,2013-07-07 13:35:00,
2013-07-07 09:37:00,72.0,66.7,30.11,SW,225,0.0,0.0,83,0.00,,,0.00,Rainwise IP-100,2013-07-07 13:37:00,
2013-07-07 09:42:00,72.0,65.5,30.11,SW,225,0.0,2.0,80,0.00,,,0.00,Rainwise IP-100,2013-07-07 13:42:00,
2013-07-07 09:47:00,72.0,65.5,30.11,SSE,157,4.0,4.0,80,0.00,,,0.00,Rainwise IP-100,2013-07-07 13:47:00,
2013-07-07 09:52:00,72.0,65.0,30.11,SSW,202,6.0,8.0,78,0.00,,,0.00,Rainwise IP-100,2013-07-07 13:52:00,
2013-07-07 09:57:00,72.0,65.0,30.11,South,180,6.0,9.0,79,0.00,,,0.00,Rainwise IP-100,2013-07-07 13:57:00,
2013-07-07 10:02:00,72.0,65.0,30.11,SSW,202,4.0,10.0,79,0.00,,,0.00,Rainwise IP-100,2013-07-07 14:02:00,
2013-07-07 10:07:00,72.0,65.0,30.11,SSW,202,3.0,6.0,79,0.00,,,0.00,Rainwise IP-100,2013-07-07 14:07:00,
2013-07-07 10:12:00,72.0,65.0,30.11,South,180,6.0,8.0,78,0.00,,,0.00,Rainwise IP-100,2013-07-07 14:12:00,
2013-07-07 10:17:00,72.0,65.5,30.11,SSW,202,6.0,9.0,80,0.00,,,0.00,Rainwise IP-100,2013-07-07 14:17:00,
2013-07-07 10:22:00,72.0,65.5,30.11,South,180,6.0,9.0,80,0.00,,,0.00,Rainwise IP-100,2013-07-07 14:22:00,
2013-07-07 10:27:00,72.0,65.0,30.11,South,180,6.0,9.0,79,0.00,,,0.00,Rainwise IP-100,2013-07-07 14:27:00,
2013-07-07 10:32:00,72.0,66.0,30.11,South,180,5.0,9.0,81,0.00,,,0.00,Rainwise IP-100,2013-07-07 14:32:00,
2013-07-07 10:37:00,72.0,65.0,30.11,SSW,202,7.0,10.0,79,0.00,,,0.00,Rainwise IP-100,2013-07-07 14:37:00,
2013-07-07 10:42:00,72.0,65.0,30.11,South,180,6.0,10.0,78,0.00,,,0.00,Rainwise IP-100,2013-07-07 14:42:00,
2013-07-07 10:47:00,73.0,66.0,30.11,SSW,202,6.0,8.0,78,0.00,,,0.00,Rainwise IP-100,2013-07-07 14:47:00,
2013-07-07 10:52:00,73.0,66.0,30.11,SSW,202,7.0,9.0,78,0.00,,,0.00,Rainwise IP-100,2013-07-07 14:52:00,
2013-07-07 10:57:00,73.0,66.0,30.11,SSW,202,6.0,10.0,78,0.00,,,0.00,Rainwise IP-100,2013-07-07 14:57:00,
2013-07-07 11:02:00,73.0,65.5,30.10,SSW,202,6.0,10.0,77,0.00,,,0.00,Rainwise IP-100,2013-07-07 15:02:00,
2013-07-07 11:07:00,73.0,66.0,30.10,SW,225,5.0,10.0,78,0.00,,,0.00,Rainwise IP-100,2013-07-07 15:07:00,
2013-07-07 11:12:00,73.0,64.5,30.11,South,180,6.0,9.0,74,0.00,,,0.00,Rainwise IP-100,2013-07-07 15:12:00,
2013-07-07 11:17:00,73.0,65.0,30.11,SW,225,6.0,9.0,75,0.00,,,0.00,Rainwise IP-100,2013-07-07 15:17:00,
2013-07-07 11:22:00,73.0,65.0,30.10,SSW,202,4.0,9.0,76,0.00,,,0.00,Rainwise IP-100,2013-07-07 15:22:00,
2013-07-07 11:27:00,74.0,67.0,30.10,SW,225,3.0,6.0,79,0.00,,,0.00,Rainwise IP-100,2013-07-07 15:27:00,
2013-07-07 11:32:00,74.0,66.3,30.10,South,180,6.0,6.0,77,0.00,,,0.00,Rainwise IP-100,2013-07-07 15:32:00,
2013-07-07 11:37:00,73.0,65.5,30.10,South,180,2.0,7.0,77,0.00,,,0.00,Rainwise IP-100,2013-07-07 15:37:00,
2013-07-07 11:42:00,74.0,67.0,30.10,SSW,202,1.0,7.0,79,0.00,,,0.00,Rainwise IP-100,2013-07-07 15:42:00,
2013-07-07 11:47:00,74.0,66.0,30.10,SW,225,5.0,7.0,75,0.00,,,0.00,Rainwise IP-100,2013-07-07 15:47:00,
2013-07-07 11:52:00,74.0,65.0,30.10,SSE,157,7.0,7.0,73,0.00,,,0.00,Rainwise IP-100,2013-07-07 15:52:00,
2013-07-07 11:57:00,74.0,65.5,30.10,South,180,9.0,9.0,74,0.00,,,0.00,Rainwise IP-100,2013-07-07 15:57:00,
2013-07-07 12:02:00,74.0,64.0,30.09,South,180,6.0,10.0,71,0.00,,,0.00,Rainwise IP-100,2013-07-07 16:02:00,
2013-07-07 12:07:00,74.0,64.0,30.09,South,180,5.0,9.0,71,0.00,,,0.00,Rainwise IP-100,2013-07-07 16:07:00,
2013-07-07 12:12:00,75.0,65.0,30.09,SW,225,6.0,9.0,71,0.00,,,0.00,Rainwise IP-100,2013-07-07 16:12:00,
2013-07-07 12:17:00,75.0,64.0,30.09,South,180,6.0,9.0,68,0.00,,,0.00,Rainwise IP-100,2013-07-07 16:17:00,
2013-07-07 12:22:00,76.0,65.0,30.09,SW,225,7.0,8.0,69,0.00,,,0.00,Rainwise IP-100,2013-07-07 16:22:00,
2013-07-07 12:27:00,76.0,64.0,30.09,WSW,247,5.0,9.0,67,0.00,,,0.00,Rainwise IP-100,2013-07-07 16:27:00,
2013-07-07 12:32:00,76.0,64.5,30.09,SW,225,6.0,9.0,68,0.00,,,0.00,Rainwise IP-100,2013-07-07 16:32:00,
2013-07-07 12:37:00,76.0,63.5,30.09,West,270,2.0,12.0,65,0.00,,,0.00,Rainwise IP-100,2013-07-07 16:37:00,
2013-07-07 12:42:00,76.0,63.5,30.08,SW,225,6.0,10.0,65,0.00,,,0.00,Rainwise IP-100,2013-07-07 16:42:00,
2013-07-07 12:47:00,76.0,63.5,30.08,SW,225,7.0,10.0,66,0.00,,,0.00,Rainwise IP-100,2013-07-07 16:47:00,
2013-07-07 12:52:00,77.0,64.5,30.08,SSW,202,7.0,10.0,65,0.00,,,0.00,Rainwise IP-100,2013-07-07 16:52:00,
2013-07-07 12:57:00,77.0,64.5,30.08,South,180,7.0,9.0,65,0.00,,,0.00,Rainwise IP-100,2013-07-07 16:57:00,
2013-07-07 13:02:00,78.0,65.5,30.07,SSW,202,6.0,7.0,65,0.00,,,0.00,Rainwise IP-100,2013-07-07 17:02:00,
2013-07-07 13:07:00,78.0,64.5,30.07,WNW,292,4.0,7.0,63,0.00,,,0.00,Rainwise IP-100,2013-07-07 17:07:00,
2013-07-07 13:12:00,78.0,64.0,30.07,West,270,4.0,7.0,62,0.00,,,0.00,Rainwise IP-100,2013-07-07 17:12:00,
2013-07-07 13:17:00,78.0,61.5,30.07,West,270,7.0,11.0,57,0.00,,,0.00,Rainwise IP-100,2013-07-07 17:17:00,
2013-07-07 13:22:00,79.0,64.0,30.07,SW,225,7.0,12.0,60,0.00,,,0.00,Rainwise IP-100,2013-07-07 17:22:00,
2013-07-07 13:27:00,80.0,61.0,30.07,South,180,3.0,11.0,52,0.00,,,0.00,Rainwise IP-100,2013-07-07 17:27:00,
2013-07-07 13:32:00,80.0,63.0,30.06,SW,225,7.0,11.0,56,0.00,,,0.00,Rainwise IP-100,2013-07-07 17:32:00,
2013-07-07 13:37:00,81.0,64.0,30.06,WNW,292,6.0,9.0,56,0.00,,,0.00,Rainwise IP-100,2013-07-07 17:37:00,
2013-07-07 13:42:00,82.0,62.5,30.05,NW,315,3.0,10.0,52,0.00,,,0.00,Rainwise IP-100,2013-07-07 17:42:00,
2013-07-07 13:47:00,82.0,61.5,30.05,SW,225,6.0,9.0,50,0.00,,,0.00,Rainwise IP-100,2013-07-07 17:47:00,
2013-07-07 13:52:00,81.0,61.5,30.05,SW,225,5.0,9.0,51,0.00,,,0.00,Rainwise IP-100,2013-07-07 17:52:00,
2013-07-07 13:57:00,82.0,61.5,30.05,West,270,3.0,8.0,50,0.00,,,0.00,Rainwise IP-100,2013-07-07 17:57:00,
2013-07-07 14:02:00,81.0,63.0,30.05,SW,225,2.0,10.0,54,0.00,,,0.00,Rainwise IP-100,2013-07-07 18:02:00,
2013-07-07 14:07:00,82.0,62.5,30.05,SW,225,6.0,7.0,52,0.00,,,0.00,Rainwise IP-100,2013-07-07 18:07:00,
2013-07-07 14:12:00,82.0,62.0,30.03,South,180,6.0,9.0,51,0.00,,,0.00,Rainwise IP-100,2013-07-07 18:12:00,
2013-07-07 14:17:00,81.0,64.0,30.03,SW,225,7.0,10.0,56,0.00,,,0.00,Rainwise IP-100,2013-07-07 18:17:00,
2013-07-07 14:22:00,82.0,64.5,30.03,West,270,5.0,10.0,55,0.00,,,0.00,Rainwise IP-100,2013-07-07 18:22:00,
2013-07-07 14:27:00,82.0,63.0,30.03,West,270,7.0,10.0,53,0.00,,,0.00,Rainwise IP-100,2013-07-07 18:27:00,
2013-07-07 14:32:00,81.0,62.5,30.03,SW,225,8.0,13.0,53,0.00,,,0.00,Rainwise IP-100,2013-07-07 18:32:00,
2013-07-07 14:37:00,81.0,63.5,30.03,SSW,202,9.0,10.0,55,0.00,,,0.00,Rainwise IP-100,2013-07-07 18:37:00,
2013-07-07 14:42:00,81.0,63.5,30.03,SW,225,7.0,12.0,55,0.00,,,0.00,Rainwise IP-100,2013-07-07 18:42:00,
2013-07-07 14:47:00,82.0,65.0,30.03,SW,225,9.0,10.0,56,0.00,,,0.00,Rainwise IP-100,2013-07-07 18:47:00,
2013-07-07 14:52:00,82.0,66.0,30.03,SW,225,4.0,9.0,58,0.00,,,0.00,Rainwise IP-100,2013-07-07 18:52:00,
2013-07-07 14:57:00,83.0,64.0,30.03,SW,225,2.0,10.0,53,0.00,,,0.00,Rainwise IP-100,2013-07-07 18:57:00,
2013-07-07 15:02:00,83.0,66.3,30.02,SW,225,2.0,10.0,57,0.00,,,0.00,Rainwise IP-100,2013-07-07 19:02:00,
2013-07-07 15:07:00,83.0,65.0,30.02,SSW,202,6.0,10.0,54,0.00,,,0.00,Rainwise IP-100,2013-07-07 19:07:00,
2013-07-07 15:12:00,82.0,64.5,30.02,WSW,247,4.0,11.0,55,0.00,,,0.00,Rainwise IP-100,2013-07-07 19:12:00,
2013-07-07 15:17:00,81.0,64.0,30.02,South,180,7.0,9.0,56,0.00,,,0.00,Rainwise IP-100,2013-07-07 19:17:00,
2013-07-07 15:22:00,81.0,64.5,30.02,SW,225,6.0,13.0,57,0.00,,,0.00,Rainwise IP-100,2013-07-07 19:22:00,
2013-07-07 15:27:00,81.0,64.0,30.02,SW,225,6.0,10.0,56,0.00,,,0.00,Rainwise IP-100,2013-07-07 19:27:00,
2013-07-07 15:32:00,81.0,65.0,30.02,SSW,202,5.0,8.0,58,0.00,,,0.00,Rainwise IP-100,2013-07-07 19:32:00,
2013-07-07 15:37:00,81.0,65.5,30.02,SSW,202,7.0,7.0,59,0.00,,,0.00,Rainwise IP-100,2013-07-07 19:37:00,
2013-07-07 15:42:00,80.0,65.0,30.03,SW,225,4.0,10.0,60,0.00,,,0.00,Rainwise IP-100,2013-07-07 19:42:00,
2013-07-07 15:47:00,80.0,65.0,30.03,SW,225,5.0,9.0,60,0.00,,,0.00,Rainwise IP-100,2013-07-07 19:47:00,
2013-07-07 15:52:00,80.0,66.3,30.02,SW,225,3.0,10.0,63,0.00,,,0.00,Rainwise IP-100,2013-07-07 19:52:00,
2013-07-07 15:57:00,80.0,65.5,30.02,SSW,202,3.0,9.0,61,0.00,,,0.00,Rainwise IP-100,2013-07-07 19:57:00,
2013-07-07 16:02:00,80.0,66.0,30.02,SW,225,5.0,8.0,62,0.00,,,0.00,Rainwise IP-100,2013-07-07 20:02:00,
2013-07-07 16:07:00,80.0,66.3,30.02,SW,225,4.0,9.0,63,0.00,,,0.00,Rainwise IP-100,2013-07-07 20:07:00,
2013-07-07 16:12:00,80.0,66.3,30.01,SW,225,4.0,7.0,63,0.00,,,0.00,Rainwise IP-100,2013-07-07 20:12:00,
2013-07-07 16:17:00,80.0,66.3,30.01,SW,225,2.0,6.0,63,0.00,,,0.00,Rainwise IP-100,2013-07-07 20:17:00,
2013-07-07 16:22:00,80.0,65.5,30.01,West,270,1.0,6.0,61,0.00,,,0.00,Rainwise IP-100,2013-07-07 20:22:00,
2013-07-07 16:27:00,80.0,66.0,30.01,SW,225,5.0,6.0,62,0.00,,,0.00,Rainwise IP-100,2013-07-07 20:27:00,
2013-07-07 16:32:00,80.0,65.5,30.01,SW,225,5.0,6.0,61,0.00,,,0.00,Rainwise IP-100,2013-07-07 20:32:00,
2013-07-07 16:37:00,80.0,65.5,30.01,SW,225,1.0,7.0,61,0.00,,,0.00,Rainwise IP-100,2013-07-07 20:37:00,
2013-07-07 16:42:00,80.0,66.3,30.00,SW,225,0.0,7.0,63,0.00,,,0.00,Rainwise IP-100,2013-07-07 20:42:00,
2013-07-07 16:47:00,80.0,66.7,30.00,SW,225,1.0,7.0,64,0.00,,,0.00,Rainwise IP-100,2013-07-07 20:47:00,
2013-07-07 16:52:00,80.0,66.7,30.00,WSW,247,0.0,6.0,64,0.00,,,0.00,Rainwise IP-100,2013-07-07 20:52:00,
2013-07-07 16:57:00,81.0,66.7,30.00,WSW,247,6.0,7.0,62,0.00,,,0.00,Rainwise IP-100,2013-07-07 20:57:00,
2013-07-07 17:02:00,81.0,66.3,30.00,South,180,0.0,7.0,61,0.00,,,0.00,Rainwise IP-100,2013-07-07 21:02:00,
2013-07-07 17:07:00,81.0,68.5,30.00,SE,135,0.0,2.0,65,0.00,,,0.00,Rainwise IP-100,2013-07-07 21:07:00,
2013-07-07 17:12:00,81.0,66.3,30.00,SE,135,0.0,0.0,61,0.00,,,0.00,Rainwise IP-100,2013-07-07 21:12:00,
2013-07-07 17:17:00,81.0,67.0,30.00,NW,315,0.0,5.0,63,0.00,,,0.00,Rainwise IP-100,2013-07-07 21:17:00,
2013-07-07 17:22:00,81.0,66.7,29.99,NW,315,0.0,1.0,62,0.00,,,0.00,Rainwise IP-100,2013-07-07 21:22:00,
2013-07-07 17:27:00,81.0,67.5,29.99,NW,315,0.0,2.0,64,0.00,,,0.00,Rainwise IP-100,2013-07-07 21:27:00,
2013-07-07 17:32:00,80.0,67.0,30.00,NNW,337,0.0,1.0,65,0.00,,,0.00,Rainwise IP-100,2013-07-07 21:32:00,
2013-07-07 17:37:00,80.0,68.0,30.00,NNW,337,0.0,0.0,67,0.00,,,0.00,Rainwise IP-100,2013-07-07 21:37:00,
2013-07-07 17:42:00,79.0,68.5,30.00,NNW,337,0.0,0.0,70,0.00,,,0.00,Rainwise IP-100,2013-07-07 21:42:00,
2013-07-07 17:47:00,79.0,69.7,30.00,NNW,337,0.0,0.0,73,0.00,,,0.00,Rainwise IP-100,2013-07-07 21:47:00,
2013-07-07 17:52:00,79.0,70.5,30.00,NNW,337,0.0,0.0,75,0.00,,,0.00,Rainwise IP-100,2013-07-07 21:52:00,
2013-07-07 17:57:00,78.0,71.0,30.00,NNW,337,0.0,0.0,78,0.00,,,0.00,Rainwise IP-100,2013-07-07 21:57:00,
2013-07-07 18:02:00,78.0,71.3,30.01,NW,315,3.0,5.0,79,0.00,,,0.00,Rainwise IP-100,2013-07-07 22:02:00,
2013-07-07 18:07:00,76.0,69.3,30.01,NW,315,6.0,7.0,80,0.00,,,0.00,Rainwise IP-100,2013-07-07 22:07:00,
2013-07-07 18:12:00,75.0,71.0,30.03,West,270,3.0,7.0,86,0.30,,,0.06,Rainwise IP-100,2013-07-07 22:12:00,
2013-07-07 18:17:00,74.0,71.7,30.03,West,270,2.0,5.0,92,0.36,,,0.06,Rainwise IP-100,2013-07-07 22:17:00,
2013-07-07 18:22:00,73.0,70.5,30.05,SSE,157,4.0,5.0,92,0.06,,,0.06,Rainwise IP-100,2013-07-07 22:22:00,
2013-07-07 18:26:00,73.0,72.0,30.05,SE,135,4.0,5.0,96,0.00,,,0.06,Rainwise IP-100,2013-07-07 22:26:00,
2013-07-07 18:31:00,73.0,72.3,30.05,SE,135,3.0,6.0,97,0.00,,,0.06,Rainwise IP-100,2013-07-07 22:31:00,
2013-07-07 18:36:00,73.0,72.3,30.05,SSW,202,3.0,4.0,98,0.00,,,0.06,Rainwise IP-100,2013-07-07 22:36:00,
2013-07-07 18:41:00,73.0,72.3,30.04,SW,225,4.0,6.0,97,0.00,,,0.06,Rainwise IP-100,2013-07-07 22:41:00,
2013-07-07 18:46:00,73.0,72.3,30.04,SSW,202,2.0,7.0,98,0.00,,,0.06,Rainwise IP-100,2013-07-07 22:46:00,
2013-07-07 18:51:00,73.0,72.3,30.04,SW,225,2.0,6.0,97,0.00,,,0.06,Rainwise IP-100,2013-07-07 22:51:00,
2013-07-07 18:56:00,73.0,72.3,30.04,SW,225,0.0,4.0,97,0.00,,,0.06,Rainwise IP-100,2013-07-07 22:56:00,
2013-07-07 19:01:00,74.0,73.3,30.03,NW,315,0.0,3.0,98,0.00,,,0.06,Rainwise IP-100,2013-07-07 23:01:00,
2013-07-07 19:06:00,73.0,72.0,30.03,SW,225,0.0,3.0,96,0.00,,,0.06,Rainwise IP-100,2013-07-07 23:06:00,
2013-07-07 19:11:00,73.0,72.3,30.03,NW,315,5.0,6.0,97,0.00,,,0.06,Rainwise IP-100,2013-07-07 23:11:00,
2013-07-07 19:16:00,73.0,72.3,30.04,NW,315,3.0,5.0,98,0.00,,,0.06,Rainwise IP-100,2013-07-07 23:16:00,
2013-07-07 19:21:00,73.0,72.7,30.04,NW,315,2.0,5.0,99,0.00,,,0.06,Rainwise IP-100,2013-07-07 23:21:00,
2013-07-07 19:26:00,73.0,72.7,30.04,NW,315,1.0,4.0,99,0.00,,,0.06,Rainwise IP-100,2013-07-07 23:26:00,
2013-07-07 19:31:00,73.0,72.7,30.04,NW,315,1.0,3.0,99,0.00,,,0.06,Rainwise IP-100,2013-07-07 23:31:00,
2013-07-07 19:36:00,72.0,71.7,30.04,NW,315,0.0,2.0,99,0.00,,,0.06,Rainwise IP-100,2013-07-07 23:36:00,
2013-07-07 19:41:00,72.0,71.7,30.04,NW,315,1.0,2.0,99,0.00,,,0.06,Rainwise IP-100,2013-07-07 23:41:00,
2013-07-07 19:46:00,72.0,71.3,30.04,NW,315,0.0,2.0,98,0.00,,,0.06,Rainwise IP-100,2013-07-07 23:46:00,
2013-07-07 19:51:00,72.0,70.0,30.04,NNE,22,2.0,2.0,94,0.00,,,0.06,Rainwise IP-100,2013-07-07 23:51:00,
2013-07-07 19:56:00,71.0,69.0,30.04,NE,45,2.0,3.0,94,0.00,,,0.06,Rainwise IP-100,2013-07-07 23:56:00,
2013-07-07 20:01:00,71.0,69.3,30.05,NE,45,2.0,3.0,95,0.00,,,0.06,Rainwise IP-100,2013-07-08 00:01:00,
2013-07-07 20:06:00,71.0,69.3,30.05,NE,45,2.0,2.0,95,0.00,,,0.06,Rainwise IP-100,2013-07-08 00:06:00,
2013-07-07 20:09:00,71.0,69.3,30.05,NE,45,0.0,2.0,95,0.00,,,0.06,Rainwise IP-100,2013-07-08 00:09:00,
2013-07-07 20:14:00,70.0,68.5,30.05,NE,45,1.0,1.0,95,0.00,,,0.06,Rainwise IP-100,2013-07-08 00:14:00,
2013-07-07 20:19:00,70.0,69.3,30.05,NE,45,0.0,2.0,97,0.00,,,0.06,Rainwise IP-100,2013-07-08 00:19:00,
2013-07-07 20:24:00,70.0,69.7,30.05,NE,45,1.0,2.0,99,0.00,,,0.06,Rainwise IP-100,2013-07-08 00:24:00,
2013-07-07 20:29:00,69.0,68.5,30.05,SSW,202,1.0,4.0,99,0.00,,,0.06,Rainwise IP-100,2013-07-08 00:29:00,
2013-07-07 20:34:00,69.0,68.5,30.06,SSW,202,0.0,2.0,99,0.00,,,0.06,Rainwise IP-100,2013-07-08 00:34:00,
2013-07-07 20:39:00,69.0,68.5,30.06,SW,225,0.0,0.0,99,0.00,,,0.06,Rainwise IP-100,2013-07-08 00:39:00,
2013-07-07 20:44:00,69.0,68.5,30.07,SW,225,0.0,2.0,99,0.00,,,0.06,Rainwise IP-100,2013-07-08 00:44:00,
2013-07-07 20:49:00,69.0,68.5,30.07,South,180,0.0,3.0,99,0.00,,,0.06,Rainwise IP-100,2013-07-08 00:49:00,
2013-07-07 20:54:00,69.0,68.5,30.06,South,180,0.0,0.0,99,0.00,,,0.06,Rainwise IP-100,2013-07-08 00:54:00,
2013-07-07 20:59:00,69.0,68.5,30.06,South,180,0.0,0.0,99,0.00,,,0.06,Rainwise IP-100,2013-07-08 00:59:00,
2013-07-07 21:04:00,69.0,68.5,30.06,South,180,0.0,0.0,99,0.00,,,0.06,Rainwise IP-100,2013-07-08 01:04:00,
2013-07-07 21:09:00,69.0,68.5,30.06,South,180,2.0,3.0,99,0.00,,,0.06,Rainwise IP-100,2013-07-08 01:09:00,
2013-07-07 21:14:00,69.0,68.5,30.06,South,180,0.0,3.0,99,0.00,,,0.06,Rainwise IP-100,2013-07-08 01:14:00,
2013-07-07 21:19:00,68.0,67.5,30.06,South,180,0.0,0.0,99,0.00,,,0.06,Rainwise IP-100,2013-07-08 01:19:00,
2013-07-07 21:24:00,68.0,67.5,30.07,South,180,0.0,0.0,99,0.00,,,0.06,Rainwise IP-100,2013-07-08 01:24:00,
2013-07-07 21:29:00,68.0,67.5,30.07,South,180,2.0,2.0,99,0.00,,,0.06,Rainwise IP-100,2013-07-08 01:29:00,
2013-07-07 21:34:00,68.0,67.5,30.07,South,180,1.0,2.0,99,0.00,,,0.06,Rainwise IP-100,2013-07-08 01:34:00,
2013-07-07 21:39:00,68.0,67.5,30.07,South,180,1.0,3.0,99,0.00,,,0.06,Rainwise IP-100,2013-07-08 01:39:00,
2013-07-07 21:44:00,68.0,67.5,30.07,South,180,0.0,1.0,99,0.00,,,0.06,Rainwise IP-100,2013-07-08 01:44:00,
2013-07-07 21:49:00,68.0,67.5,30.07,South,180,2.0,3.0,99,0.00,,,0.06,Rainwise IP-100,2013-07-08 01:49:00,
2013-07-07 21:54:00,68.0,67.5,30.07,South,180,3.0,4.0,99,0.00,,,0.06,Rainwise IP-100,2013-07-08 01:54:00,
2013-07-07 21:59:00,68.0,67.5,30.07,SSW,202,4.0,5.0,99,0.00,,,0.06,Rainwise IP-100,2013-07-08 01:59:00,
2013-07-07 22:04:00,68.0,67.5,30.07,SSW,202,1.0,5.0,99,0.00,,,0.06,Rainwise IP-100,2013-07-08 02:04:00,
2013-07-07 22:09:00,68.0,67.5,30.07,WNW,292,0.0,4.0,99,0.00,,,0.06,Rainwise IP-100,2013-07-08 02:09:00,
2013-07-07 22:14:00,68.0,67.5,30.07,WNW,292,0.0,0.0,99,0.00,,,0.06,Rainwise IP-100,2013-07-08 02:14:00,
2013-07-07 22:19:00,68.0,67.5,30.07,WNW,292,0.0,0.0,99,0.00,,,0.06,Rainwise IP-100,2013-07-08 02:19:00,
2013-07-07 22:24:00,68.0,67.5,30.07,SSW,202,4.0,5.0,99,0.00,,,0.06,Rainwise IP-100,2013-07-08 02:24:00,
2013-07-07 22:29:00,68.0,67.5,30.07,SSW,202,5.0,5.0,99,0.00,,,0.06,Rainwise IP-100,2013-07-08 02:29:00,
2013-07-07 22:34:00,68.0,67.5,30.07,South,180,6.0,7.0,99,0.00,,,0.06,Rainwise IP-100,2013-07-08 02:34:00,
2013-07-07 22:39:00,68.0,67.5,30.07,SW,225,3.0,7.0,99,0.00,,,0.06,Rainwise IP-100,2013-07-08 02:39:00,
2013-07-07 22:44:00,68.0,67.5,30.07,West,270,3.0,4.0,99,0.00,,,0.06,Rainwise IP-100,2013-07-08 02:44:00,
2013-07-07 22:49:00,68.0,67.5,30.07,West,270,0.0,4.0,99,0.00,,,0.06,Rainwise IP-100,2013-07-08 02:49:00,
2013-07-07 22:54:00,68.0,67.5,30.08,West,270,0.0,3.0,99,0.00,,,0.06,Rainwise IP-100,2013-07-08 02:54:00,
2013-07-07 22:59:00,68.0,67.5,30.08,West,270,0.0,0.0,99,0.00,,,0.06,Rainwise IP-100,2013-07-08 02:59:00,
2013-07-07 23:04:00,68.0,67.5,30.08,SSE,157,1.0,4.0,99,0.00,,,0.06,Rainwise IP-100,2013-07-08 03:04:00,
2013-07-07 23:09:00,68.0,67.5,30.08,SE,135,0.0,4.0,99,0.00,,,0.06,Rainwise IP-100,2013-07-08 03:09:00,
2013-07-07 23:14:00,68.0,67.5,30.07,SE,135,2.0,3.0,99,0.00,,,0.06,Rainwise IP-100,2013-07-08 03:14:00,
2013-07-07 23:19:00,67.0,66.7,30.07,SE,135,0.0,3.0,99,0.00,,,0.06,Rainwise IP-100,2013-07-08 03:19:00,
2013-07-07 23:24:00,67.0,66.7,30.08,SE,135,0.0,0.0,99,0.00,,,0.06,Rainwise IP-100,2013-07-08 03:24:00,
2013-07-07 23:29:00,67.0,66.7,30.08,SE,135,0.0,0.0,99,0.00,,,0.06,Rainwise IP-100,2013-07-08 03:29:00,
2013-07-07 23:34:00,67.0,66.7,30.07,SE,135,0.0,0.0,99,0.00,,,0.06,Rainwise IP-100,2013-07-08 03:34:00,
2013-07-07 23:39:00,67.0,66.7,30.07,SE,135,0.0,0.0,99,0.00,,,0.06,Rainwise IP-100,2013-07-08 03:39:00,
2013-07-07 23:44:00,67.0,66.7,30.06,ENE,67,2.0,0.0,99,0.00,,,0.06,Rainwise IP-100,2013-07-08 03:44:00,
2013-07-07 23:49:00,67.0,66.7,30.06,ENE,67,3.0,4.0,99,0.00,,,0.06,Rainwise IP-100,2013-07-08 03:49:00,
2013-07-07 23:54:00,67.0,66.7,30.05,ENE,67,3.0,4.0,99,0.00,,,0.06,Rainwise IP-100,2013-07-08 03:54:00,
2013-07-07 23:59:00,67.0,66.7,30.05,ENE,67,0.0,3.0,99,0.00,,,0.06,Rainwise IP-100,2013-07-08 03:59:00,